Location: Agoujgal
(30.9547°N, 8.8387°W)
Time: 13:11:40
(UTC+00:00)

Daily predictions for brighter satellites

Satellite Brightness Start Highest point End
(mag) Time Altitude Azimuth Time Altitude Azimuth Time Altitude Azimuth
USA 215 4.2 18:12:17 10° SSE 18:18:38 53° SW 18:25:01 10° NW
H-2A R/B 2.8 18:16:38 10° SSE 18:20:30 84° ENE 18:24:24 10° N
CZ-4 R/B 2.6 18:17:38 10° SE 18:20:56 23° ENE 18:24:16 10° NNE
CENTAUR R/B 4.0 18:19:47 10° SE 18:21:56 12° ESE 18:24:11 10° E
Meteor 2-12 Rocket 4.5 18:18:31 10° N 18:24:42 82° E 18:30:51 10° S
CORIOLIS 4.3 18:23:42 10° SSE 18:29:01 84° WSW 18:34:24 10° NNW
Cosmos 1758 Rocket 4.2 18:26:28 10° NNW 18:30:53 63° W 18:35:18 10° S
Delta 2 Rocket 2.8 18:31:40 10° WSW 18:35:15 87° NNW 18:38:20 12° ENE
Cosmos 2082 Rocket 4.0 18:34:38 10° NE 18:36:13 11° NE 18:37:44 10° ENE
SL-4 R/B 1.6 18:32:54 10° NW 18:36:42 71° NE 18:40:13 10° SE
Meteosat 1 Rocket2 3.3 18:34:52 10° WSW 18:38:32 42° S 18:41:35 13° E
USA 238 DEB 3.6 18:33:26 10° SSW 18:39:59 66° ESE 18:46:43 10° NE
USA 238 3.7 18:33:33 10° SSW 18:40:06 66° ESE 18:46:49 10° NE
Cosmos 1703 3.7 18:37:42 10° N 18:41:24 39° E 18:45:03 10° SSE
YAOGAN 1 3.2 18:39:47 10° SE 18:43:39 33° ENE 18:47:32 10° N
Cosmos 968 Rocket 4.2 18:38:41 10° NNW 18:43:51 58° WSW 18:48:57 10° S
COSMOS 2406 3.4 18:42:01 10° N 18:47:36 49° ENE 18:53:05 10° SE
SKYMED 2 3.9 18:44:54 10° N 18:49:13 70° WNW 18:53:31 10° SSW
Ariane Rocket 4.2 18:49:29 11° ESE 18:52:53 21° ENE 18:56:38 10° NNE
EO 1 Delta rocket 4.0 18:53:07 10° SSE 18:57:35 47° ENE 19:02:05 10° N
Cosmos 1908 3.6 18:55:03 10° SSW 18:58:55 68° W 19:02:48 10° N
FengYun 1-2 T 4.2 18:56:29 10° SSE 19:02:08 82° ENE 19:07:46 10° N
NOSS 3-2 (A) 3.2 18:59:04 10° SSW 19:04:37 84° ESE 19:10:44 10° NNE
Cosmos 2278 Rocket 3.0 19:03:52 10° SW 19:09:22 53° WNW 19:14:55 10° N
Cosmos 2297 4.1 19:05:38 10° S 19:10:54 41° ESE 19:15:55 11° NE
Meteor 1-11 4.2 19:06:05 10° N 19:11:53 80° E 19:17:42 10° S
Cosmos 1242 Rocket 3.7 19:08:56 10° NNW 19:12:29 47° W 19:15:58 10° S
OAO 2 Rocket 3.4 19:15:32 10° WNW 19:20:49 83° NNE 19:23:09 34° ESE
Cosmos 1777 Rocket 3.8 19:16:48 10° NNW 19:22:00 75° ENE 19:27:10 10° SSE
CSL-04 Rocket 3.8 19:20:14 10° S 19:25:47 80° WSW 19:31:19 10° NNW
Lacrosse 5 rocket 3.2 19:24:16 10° WNW 19:27:38 28° WSW 19:31:10 10° S
Cosmos 1939 Rocket 2.8 19:28:06 51° ESE 19:28:39 57° ENE 19:32:35 10° N
NOSS 3-2 (C) 3.1 19:23:29 10° SSW 19:29:02 80° ESE 19:34:07 15° NNE
IRS-1A Rocket 4.5 19:28:34 32° ESE 19:30:27 44° ENE 19:35:38 10° N
Cosmos 44 3.2 19:26:03 10° SSW 19:31:08 77° ESE 19:33:35 30° NE
NOAA 11 4.0 19:33:13 10° SSE 19:38:39 78° ENE 19:44:05 10° N
Cosmos 839 Rocket 4.5 19:37:33 10° NNW 19:44:01 72° WSW 19:51:52 10° SSE
Cosmos 1459 Rocket 4.1 19:41:20 10° N 19:47:22 50° E 19:47:27 50° E
CZ-2D R/B 3.6 19:47:26 38° SSW 19:48:41 63° W 19:52:31 10° NNW
ADEOS Rocket 3.5 19:41:52 10° NNE 19:49:01 46° E 19:55:32 10° S
Cosmos 1461 4.4 19:45:26 10° NNW 19:47:27 26° N 19:47:27 26° N
Cosmos 1833 Rocket 2.5 19:48:39 10° NNW 19:54:17 85° ENE 19:55:41 53° SSE
Cosmos 1300 4.0 19:51:56 10° SSW 19:55:32 40° W 19:59:09 10° N
OAO 3 Rocket 3.2 19:50:43 10° WNW 19:55:29 72° N 19:55:29 72° N
CZ-4 R/B 4.1 19:52:43 10° SW 19:55:49 20° W 19:58:58 10° NW
BREEZE-M DEB (TANK) 4.0 19:57:47 10° SW 20:01:30 79° NW 20:06:22 29° NE
ATLAS 3B R/B 2.5 19:54:41 10° SSW 20:01:32 90° NNW 20:04:15 39° NNE
H-2A R/B 4.2 18:36:45 10° WSW 20:08:24 83° SSE 20:13:11 47° E
CENTAUR R/B 2.5 20:05:52 10° SW 20:11:28 69° WNW 20:13:19 46° N
Lacrosse 5 3.7 20:07:13 10° NNW 20:09:09 21° N 20:09:09 21° N
Cosmos 2173 Rocket 3.8 20:06:59 10° N 20:12:51 79° NNE 20:12:51 79° NNE
Cosmos 2082 Rocket 2.6 20:15:15 10° NNW 20:19:39 55° NNW 20:19:39 55° NNW
Ariane Rocket 4.4 20:29:42 27° SW 20:31:32 35° W 20:36:12 10° NNW
USA 234 3.9 20:41:02 44° SW 20:41:02 44° SW 20:45:16 10° SW
